Météo par heure à Julianka

Ce jour, 20 Juin, Dimanche

Heure Température Précipitation Vent Pression Humidité
00:00 +20°C° 0 mm 3 m/s 754 mmHg 87%
01:00 +19°C° 0 mm 3 m/s 754 mmHg 89%
02:00 +19°C° 0 mm 3 m/s 754 mmHg 90%
03:00 +19°C° 0 mm 3 m/s 754 mmHg 90%
04:00 +19°C° 0 mm 3 m/s 754 mmHg 91%
05:00 +20°C° 0 mm 3 m/s 754 mmHg 84%
06:00 +22°C° 0 mm 3 m/s 754 mmHg 77%
07:00 +25°C° 0 mm 4 m/s 754 mmHg 70%
08:00 +26°C° 0 mm 4 m/s 754 mmHg 64%
09:00 +27°C° 0 mm 4 m/s 754 mmHg 58%
10:00 +29°C° 0 mm 4 m/s 754 mmHg 53%
11:00 +29°C° 0 mm 4 m/s 754 mmHg 51%
12:00 +30°C° 0 mm 4 m/s 753 mmHg 50%
13:00 +30°C° 0 mm 4 m/s 753 mmHg 48%
14:00 +30°C° 0 mm 4 m/s 752 mmHg 50%
15:00 +30°C° 0 mm 4 m/s 752 mmHg 52%
16:00 +30°C° 0 mm 4 m/s 752 mmHg 54%
17:00 +29°C° 0.1 mm 4 m/s 752 mmHg 62%
18:00 +27°C° 0.1 mm 4 m/s 751 mmHg 70%
19:00 +26°C° 0.1 mm 4 m/s 751 mmHg 78%
20:00 +25°C° 0 mm 3 m/s 751 mmHg 82%
21:00 +24°C° 0 mm 3 m/s 751 mmHg 86%
22:00 +22°C° 0 mm 3 m/s 751 mmHg 90%
23:00 +21°C° 0 mm 3 m/s 751 mmHg 91%

Demain, 21 Juin, Lundi

Heure Température Précipitation Vent Pression Humidité
00:00 +21°C° 0 mm 3 m/s 751 mmHg 91%
01:00 +20°C° 0 mm 2 m/s 751 mmHg 92%
02:00 +20°C° 0 mm 3 m/s 751 mmHg 92%
03:00 +20°C° 0 mm 3 m/s 751 mmHg 92%
04:00 +20°C° 0 mm 3 m/s 751 mmHg 92%
05:00 +21°C° 0 mm 4 m/s 751 mmHg 85%
06:00 +22°C° 0 mm 4 m/s 751 mmHg 79%
07:00 +25°C° 0 mm 5 m/s 751 mmHg 72%
08:00 +26°C° 0 mm 5 m/s 751 mmHg 66%
09:00 +27°C° 0 mm 6 m/s 750 mmHg 60%
10:00 +28°C° 0 mm 6 m/s 750 mmHg 55%
11:00 +29°C° 0 mm 6 m/s 750 mmHg 53%
12:00 +29°C° 0 mm 5 m/s 750 mmHg 51%
13:00 +30°C° 0 mm 5 m/s 750 mmHg 49%
14:00 +29°C° 0 mm 5 m/s 749 mmHg 53%
15:00 +29°C° 0 mm 4 m/s 749 mmHg 57%
16:00 +28°C° 0 mm 4 m/s 749 mmHg 61%
17:00 +27°C° 0 mm 4 m/s 749 mmHg 65%
18:00 +26°C° 0 mm 4 m/s 749 mmHg 70%
19:00 +26°C° 0 mm 3 m/s 749 mmHg 75%
20:00 +24°C° 0.2 mm 3 m/s 749 mmHg 80%
21:00 +22°C° 0.2 mm 3 m/s 749 mmHg 86%
22:00 +21°C° 0.2 mm 3 m/s 749 mmHg 91%
23:00 +21°C° 0 mm 3 m/s 749 mmHg 92%

Après-demain, 22 Juin, Mardi

Heure Température Précipitation Vent Pression Humidité
00:00 +20°C° 0 mm 3 m/s 749 mmHg 93%
01:00 +20°C° 0 mm 3 m/s 749 mmHg 94%
02:00 +20°C° 0.1 mm 3 m/s 749 mmHg 94%
03:00 +20°C° 0.1 mm 2 m/s 749 mmHg 94%
04:00 +20°C° 0.1 mm 2 m/s 749 mmHg 95%
05:00 +21°C° 0 mm 3 m/s 749 mmHg 89%
06:00 +24°C° 0 mm 3 m/s 749 mmHg 84%
07:00 +25°C° 0 mm 3 m/s 749 mmHg 78%
08:00 +26°C° 0.6 mm 3 m/s 750 mmHg 73%
09:00 +28°C° 0.6 mm 3 m/s 750 mmHg 69%
10:00 +29°C° 0.6 mm 2 m/s 750 mmHg 64%
11:00 +28°C° 1 mm 2 m/s 750 mmHg 67%
12:00 +28°C° 1 mm 2 m/s 750 mmHg 69%
13:00 +28°C° 1 mm 2 m/s 750 mmHg 71%
14:00 +28°C° 1.1 mm 2 m/s 750 mmHg 71%
15:00 +28°C° 1.1 mm 2 m/s 751 mmHg 70%
16:00 +28°C° 1.1 mm 2 m/s 751 mmHg 70%
17:00 +27°C° 0.4 mm 2 m/s 751 mmHg 76%
18:00 +26°C° 0.4 mm 2 m/s 751 mmHg 81%
19:00 +25°C° 0.4 mm 1 m/s 751 mmHg 87%
20:00 +24°C° 0 mm 1 m/s 751 mmHg 89%
21:00 +23°C° 0 mm 2 m/s 751 mmHg 91%
22:00 +21°C° 0 mm 2 m/s 752 mmHg 94%
23:00 +20°C° 0 mm 2 m/s 752 mmHg 95%

23 Juin, Mercredi

Heure Température Précipitation Vent Pression Humidité
00:00 +20°C° 0 mm 2 m/s 752 mmHg 96%
01:00 +20°C° 0 mm 3 m/s 752 mmHg 97%
02:00 +19°C° 0 mm 2 m/s 752 mmHg 97%
03:00 +19°C° 0 mm 2 m/s 752 mmHg 97%
04:00 +19°C° 0 mm 2 m/s 752 mmHg 97%
05:00 +21°C° 0 mm 2 m/s 752 mmHg 92%
06:00 +23°C° 0 mm 2 m/s 752 mmHg 88%
07:00 +25°C° 0 mm 3 m/s 752 mmHg 83%
08:00 +26°C° 0 mm 2 m/s 752 mmHg 76%
09:00 +28°C° 0 mm 2 m/s 752 mmHg 69%
10:00 +30°C° 0 mm 2 m/s 752 mmHg 63%
11:00 +31°C° 0.2 mm 2 m/s 752 mmHg 60%
12:00 +32°C° 0.2 mm 2 m/s 752 mmHg 56%
13:00 +34°C° 0.2 mm 2 m/s 752 mmHg 53%
14:00 +32°C° 0.5 mm 2 m/s 752 mmHg 57%
15:00 +31°C° 0.5 mm 2 m/s 752 mmHg 61%
16:00 +30°C° 0.5 mm 2 m/s 752 mmHg 65%
17:00 +27°C° 3.2 mm 2 m/s 752 mmHg 72%
18:00 +25°C° 3.2 mm 3 m/s 752 mmHg 80%
19:00 +21°C° 3.2 mm 3 m/s 753 mmHg 87%
20:00 +21°C° 0.5 mm 3 m/s 753 mmHg 87%
21:00 +21°C° 0.5 mm 3 m/s 753 mmHg 86%
22:00 +20°C° 0.5 mm 2 m/s 753 mmHg 85%
23:00 +20°C° 0 mm 3 m/s 753 mmHg 89%

24 Juin, Jeudi

Heure Température Précipitation Vent Pression Humidité
00:00 +19°C° 0 mm 3 m/s 754 mmHg 93%
01:00 +19°C° 0 mm 3 m/s 754 mmHg 96%
02:00 +18°C° 0 mm 3 m/s 754 mmHg 96%
03:00 +18°C° 0 mm 3 m/s 754 mmHg 96%
04:00 +17°C° 0 mm 3 m/s 754 mmHg 96%
05:00 +18°C° 0 mm 3 m/s 755 mmHg 91%
06:00 +19°C° 0 mm 3 m/s 755 mmHg 85%
07:00 +20°C° 0 mm 3 m/s 755 mmHg 80%
08:00 +21°C° 0 mm 3 m/s 755 mmHg 74%
09:00 +24°C° 0 mm 3 m/s 755 mmHg 68%
10:00 +25°C° 0 mm 3 m/s 755 mmHg 61%
11:00 +26°C° 0 mm 3 m/s 755 mmHg 59%
12:00 +27°C° 0 mm 3 m/s 755 mmHg 56%
13:00 +28°C° 0 mm 2 m/s 755 mmHg 53%
14:00 +28°C° 0 mm 2 m/s 755 mmHg 52%
15:00 +28°C° 0 mm 1 m/s 755 mmHg 52%
16:00 +28°C° 0 mm 1 m/s 754 mmHg 51%
17:00 +27°C° 0 mm 1 m/s 754 mmHg 57%
18:00 +26°C° 0 mm 1 m/s 754 mmHg 63%
19:00 +25°C° 0 mm 1 m/s 753 mmHg 69%
20:00 +24°C° 0 mm 2 m/s 753 mmHg 72%
21:00 +23°C° 0 mm 2 m/s 753 mmHg 75%
22:00 +21°C° 0 mm 3 m/s 753 mmHg 78%
23:00 +20°C° 0.1 mm 3 m/s 753 mmHg 83%

25 Juin, Vendredi

Heure Température Précipitation Vent Pression Humidité
00:00 +20°C° 0.1 mm 3 m/s 753 mmHg 87%
01:00 +19°C° 0.1 mm 3 m/s 752 mmHg 92%
02:00 +19°C° 6.1 mm 3 m/s 753 mmHg 94%
03:00 +19°C° 6.1 mm 3 m/s 753 mmHg 96%
04:00 +19°C° 6.1 mm 4 m/s 753 mmHg 98%
05:00 +19°C° 2 mm 3 m/s 753 mmHg 94%
06:00 +20°C° 2 mm 3 m/s 752 mmHg 91%
07:00 +21°C° 2 mm 2 m/s 752 mmHg 88%
08:00 +23°C° 0 mm 2 m/s 752 mmHg 82%
09:00 +24°C° 0 mm 2 m/s 752 mmHg 76%
10:00 +26°C° 0 mm 3 m/s 752 mmHg 70%
11:00 +26°C° 0.3 mm 3 m/s 752 mmHg 71%
12:00 +26°C° 0.3 mm 3 m/s 752 mmHg 72%
13:00 +26°C° 0.3 mm 3 m/s 752 mmHg 74%
14:00 +25°C° 0.4 mm 4 m/s 752 mmHg 76%
15:00 +23°C° 0.4 mm 5 m/s 752 mmHg 79%
16:00 +22°C° 0.4 mm 6 m/s 752 mmHg 81%
17:00 +20°C° 0.1 mm 6 m/s 753 mmHg 83%
18:00 +17°C° 0.1 mm 6 m/s 753 mmHg 85%
19:00 +15°C° 0.1 mm 5 m/s 754 mmHg 87%
20:00 +15°C° 0 mm 5 m/s 754 mmHg 88%
21:00 +14°C° 0 mm 4 m/s 755 mmHg 90%
22:00 +14°C° 0 mm 3 m/s 755 mmHg 91%
23:00 +13°C° 0 mm 3 m/s 755 mmHg 92%
Voir plus

Nous avons besoin de votre consentement

Meteoprog et ses fournisseurs de services peuvent stocker et accéder à des données personnelles telles que des cookies, des identifiants d'appareils ou d'autres technologies similaires sur votre appareil et traiter ces données pour personnaliser le contenu et les publicités, ainsi que pour fournir des fonctionnalités de médias sociaux et analyser le trafic.

  • Stocker et/ou accéder à des informations sur votre appareil

    Des cookies, des identifiants d'appareils ou d'autres informations peuvent être stockés ou accessibles sur votre appareil aux fins indiquées ci-dessus.

  • Annonces et contenus personnalisés, mesure des annonces et des contenus, connaissance de l'audience et développement de produits

    Les annonces et le contenu peuvent être personnalisés en fonction d'un profil. D'autres données peuvent être ajoutées pour mieux personnaliser les annonces et le contenu. Les performances des publicités et du contenu peuvent être mesurées. Il est possible d'obtenir des informations sur le public qui a vu les publicités et le contenu. Ces données peuvent être utilisées pour développer ou améliorer l'expérience de l'utilisateur, les systèmes et les logiciels.

En cliquant sur "J'accepte", vous autorisez l'utilisation de cookies, des identifiants d'appareils, des balises web ou d'autres technologies similaires. Vos paramètres peuvent être modifiés dans le navigateur de votre appareil.

Dans certains cas, des intérêts légitimes peuvent être invoqués plutôt qu'un consentement. Vous pouvez en savoir plus à ce sujet dans notre Politique de confidentialité et de cookies.